Location: Newark
(43.0000°N, 1.6781°W)
Time: 21:44:33
(UTC+00:00)

Vanguard 1 - Pass Details

Date: 06 December 2021
Orbit: 652 x 3830 km, 34.2° (Epoch: 16 January)

Event Time Altitude Azimuth Distance (km) Brightness Sun altitude
Exits shadow 01:42:39 47° 117° (ESE) 4,184 13.0 -60.1°
Drops below altitude 10° 01:53:44 10° 100° (E) 5,697 14.2 -58.4°
Sets 01:57:22 0° 97° (E) 6,378 14.6 -57.8°
